Overview Statistics Trail Chart Weather Telemetry Raw packets
 

This is the latest recevied weather packets stored in our database for station/object K4KMJ. If no packets are shown the sender has not sent any weather packets the latest 10 day(s).

<< 1 2 3 4 5 6 7 >>
Time Temp. Humidity Pressure Rain* Wind** Luminosity Snow
1788653634 26.67° C 93% 1014.7 hPa 0 mm - 0 W/m² -
1788653328 26.67° C 93% 1014.6 hPa 0 mm - 0 W/m² -
1788653028 26.67° C 93% 1014.5 hPa 0 mm - 0 W/m² -
1788652723 26.67° C 93% 1014.6 hPa 0 mm - 0 W/m² -
1788652417 26.67° C 92% 1014.6 hPa 0 mm - 0 W/m² -
1788652113 27.22° C 92% 1014.5 hPa 0 mm - 2 W/m² -
1788651808 27.22° C 91% 1014.5 hPa 0 mm - 4 W/m² -
1788651503 27.22° C 91% 1014.5 hPa 0 mm - 8 W/m² -
1788651198 27.78° C 90% 1014.7 hPa 0 mm - 12 W/m² -
1788650897 27.78° C 90% 1014.5 hPa 0 mm - 18 W/m² -
1788650594 27.78° C 89% 1014.7 hPa 0 mm - 25 W/m² -
1788650289 27.78° C 89% 1014.8 hPa 0 mm - 32 W/m² -
1788649984 27.78° C 89% 1014.8 hPa 0 mm - 38 W/m² -
1788649680 28.33° C 89% 1014.7 hPa 0 mm - 45 W/m² -
1788649378 27.78° C 89% 1014.7 hPa 0 mm - 57 W/m² -
1788649078 28.33° C 89% 1015 hPa 0 mm - 56 W/m² -
1788648773 28.33° C 89% 1014.8 hPa 0 mm - 63 W/m² -
1788648472 28.33° C 89% 1014.9 hPa 0 mm - 71 W/m² -
1788648168 28.33° C 88% 1014.7 hPa 0 mm - 78 W/m² -
1788647863 28.33° C 88% 1014.5 hPa 0 mm - 79 W/m² -
1788647560 28.33° C 88% 1014.4 hPa 0 mm - 80 W/m² -
1788647256 28.33° C 88% 1014.6 hPa 0 mm - 82 W/m² -
1788646955 28.33° C 88% 1014.8 hPa 0 mm - 85 W/m² -
1788646651 28.33° C 88% 1014.9 hPa 0 mm - 88 W/m² -
1788646348 28.33° C 87% 1014.8 hPa 0 mm - 90 W/m² -

* Rain latest hour (hover to see other rain measurements)
** Current wind speed in m/s (hover to see current wind gust speed)